Zurück zum Katalog

STARLINK-34078

AktivKommunikationVLEO
NORAD 64012·PAYLOAD·🇺🇸 United States

Gestartet May 14, 2025 von Cape Canaveral Space Force Station

Loading…

Nächste Überflüge (nächste 24 Stunden)

TLE

AktuellSource: CelesTrak SupGP

Epoche: Sep 14, 2026, 22:30 UTC

1 64012C 25101U   26257.93798611 -.00014252  00000+0 -51623-3 0  2570
2 64012  43.0038   8.9128 0001468 271.9548   9.5505 15.27583954    10

Verfolge STARLINK-34078 in Echtzeit mit AllMySat

Download on the App Store